Weather in Presidente Prudente

Brazil     22°08′07″S   51°23′49″W
temp.,
°C
wind,
m/s
gust,
m/s
humid.,
%
clouds,
%
prec.,
mm/h
press.,
hPa
HPBL,
m
17 may, mon
mon1700:00+18se33680 0.0 101838
03:00+17se33741 0.0 101724
06:00+16se12820 0.0 101711
09:00+22sse33560 0.0 1019347
12:00+28wsw36340 0.0 10171746
15:00+30sw57280 0.0 10142819
18:00+24sw344147 0.0 101441
21:00+21s34552 0.0 101651
18 may, tue
tue1800:00+19sse22623 0.0 101621
03:00+17s33700 0.0 101543
06:00+15wsw00780 0.0 101611
09:00+23sw11500 0.0 1017269
12:00+29wsw35320 0.0 10161604
15:00+31wsw57260 0.0 10122440
18:00+24sw34383 0.0 101341
21:00+20sse33480 0.0 101538
19 may, wed
wed1900:00+18se33520 0.0 101532
03:00+16se34594 0.0 101453
06:00+14ese35715 0.0 101562
09:00+22e33465 0.0 1017268
12:00+31nw122731 0.0 10151394
15:00+32wsw44225 0.0 10112872
18:00+25s33345 0.0 101221
21:00+20ese334962 0.0 101433
20 may, thu
thu2000:00+19ese475524 0.0 101393
03:00+17ese376052 0.0 101397
06:00+17e34623 0.0 101454
09:00+24nne354029 0.0 1016345
12:00+31nne462384 0.0 10141443
15:00+34nw44185 0.0 10103479
18:00+27nw33261 0.0 101018
21:00+23ne0134100 0.0 101111
21 may, fri
fri2100:00+21e464259 0.0 101274
03:00+21ene35425 0.0 101073
06:00+18nne35445 0.0 101169
09:00+26nne6102729 0.0 1011333
12:00+34n7101793 0.0 10091518
15:00+34w7920100 0.0 10072521
18:00+27ssw1332100 0.0 100754
21:00+20se475215 0.1 1010117